Flag for U.S.A. Weather past 2 weeks in Clarksville, Tennessee, U.S.A.

Now
77 °F

Clear.


Feels Like: 79 °F
Forecast: 74 / 95 °F
Wind: 3 mph from Southwest

Location: Outlaw Field

Current Time: Aug 20, 2014 at 12:24:04 AM

Latest Report: Aug 19, 2014 at 11:52 PM


Visibility: 10 mi

Pressure: 29.86 "Hg

Humidity: 82%

Dew point: 71 °F

Location of ClarksvilleLocation

Historic Weather in Clarksville — Graph

°F

Clarksville temperature yesterday

Maximum temperature yesterday: 88 °F (at 2:52 PM)
Minimum temperature yesterday: 72 °F (at 1:52 AM)
Average temperature yesterday: 80 °F

Past Weeks' High & Low Weather Summary

 TemperatureHumidityPressure
High94 °F (Aug 6, 3:52 PM)97% (Aug 8, 6:01 AM)30.10 "Hg (Aug 8, 6:01 AM)
Low57 °F (Aug 13, 4:52 AM)30% (Aug 5, 3:52 PM)29.80 "Hg (Aug 18, 4:52 PM)
Average77 °F71%29.95 "Hg
* Reported Aug 4 10:52 PM — Aug 19 10:52 PM, Clarksville, Weather by CustomWeather, © 2014

Note: Actual official high and low records may vary slightly from our data, if they occured in-between our weather recording intervals... More about our weather records

Advertising

Clarksville weather history for previous 24 hours

 ConditionsComfort  
Time TempWeatherWind HumidityBarometerVisibility
10:52 PM
Aug 19
79 °FClear.3 mph77%29.85 "Hg10 mi
9:52 PM80 °FClear.7 mph76%29.85 "Hg10 mi
8:52 PM82 °FClear.7 mph74%29.84 "Hg10 mi
7:52 PM83 °FClear.10 mph74%29.81 "Hg10 mi
6:52 PM86 °FSunny.7 mph65%29.81 "Hg10 mi
5:52 PM87 °FScattered clouds.8 mph65%29.82 "Hg10 mi
4:52 PM87 °FSunny.12 mph63%29.81 "Hg10 mi
3:52 PM88 °FScattered clouds.9 mph61%29.82 "Hg10 mi
2:52 PM88 °FScattered clouds.12 mph59%29.84 "Hg10 mi
1:52 PM87 °FScattered clouds.14 mph61%29.85 "Hg10 mi
12:52 PM86 °FScattered clouds.8 mph63%29.88 "Hg10 mi
11:52 AM84 °FPartly sunny.7 mph67%29.88 "Hg10 mi
10:52 AM82 °FPassing clouds.3 mph72%29.88 "Hg10 mi
9:52 AM80 °FPartly sunny.7 mph79%29.89 "Hg9 mi
8:52 AM76 °FFog.5 mph91%29.88 "Hg6 mi
7:52 AM75 °FFog.3 mph94%29.88 "Hg4 mi
6:52 AM74 °FFog.3 mph94%29.88 "Hg5 mi
5:52 AM74 °FFog.5 mph94%29.86 "Hg5 mi
4:52 AM74 °FFog.6 mph94%29.84 "Hg5 mi
4:00 AM73 °FFog.7 mph97%29.85 "Hg2 mi
2:52 AM73 °FLow clouds.6 mph94%29.82 "Hg8 mi
1:52 AM72 °FPassing clouds.No wind93%29.82 "Hg10 mi
12:52 AM73 °FPartly cloudy.No wind94%29.84 "Hg10 mi
Weather by CustomWeather, © 2014

See weather overviewHow to use our weather pages